Showing default

LEMUR-2 WOBLER, 67368

Orbit data source: Space-Track

LEMUR-2 WOBLER, 67368 is a payload satellite owned by Spire/Lux (US) in SSO that was launched on Sun, 11 Jan 2026 UTC via an FALCON 9 launch vehicle from the Air Force Western Test Range (AFWTR). Payload-class satellites include a variety of spacecraft equipped with specific instruments for various scientific and technological missions. These include communications satellites like Starlink; space stations such as the ISS; scientific satellites like the Hubble; Earth observation satellites from companies like Planet Labs, Umbra, and HawkEye 360; GPS; miniature CubeSats for education and research; and military/defense satellites.

Loading next visibility...
Identifier
67368, 2026-004F
Orbit
SSO
Country
Flag of USUS
Related business
Manufacturer
Spire/Glasgow
Mission
Operational Commercial Com/MetRO
Bus & Motor
CUBESAT 3U, Unknown motor
Mass
4.6 kg wet, 4.6 kg dry
Launch date (UTC)
2026-01-11 (8 months ago)
Launch vehicle
FALCON 9
Launch site
Air Force Western Test Range (AFWTR)
Object type
Payload
Rocket body
Debris
Shape & HBR
Box + 2 Pan, 0.3 m
Radar Cross Section
0.054 m², Medium (>0.1 m² and < 1m²)

Expand to show TLE details & history
Last TLE update: 12 hours ago

TLE from 12 hours ago
0 LEMUR-2 WOBLER
1 67368U 26004F   26264.28542205  .00002497  00000-0  27051-3 0  9990
2 67368  97.8112 261.5975 0008240 163.8043 196.3439 14.89095991 37598
Epoch: 2026-09-21T06:51Z
TLE epoch observation values (Epoch: 2026-09-21T06:51:00.465Z)
Latitude
-0.00001°
Longitude
158.67812°
Altitude
609.315 km
Speed
7.552 km/s
True Right ascension
17h 26m 23s
True Declination
0° 00' 00"
Sunlit
Object was in daylight at epoch
Visualization orbit readout
Latitude
Unknown
Longitude
Unknown
Altitude
Unknown
Speed
Unknown
Apparent Right ascension
Unknown
Apparent Declination
Unknown
Sunlit
N/A
Visualization observer readout
Local Sidereal Time
11:32:06
Azimuth
Unknown
Elevation
Unknown
Doppler factor
Unknown
Orbital elements
Apogee altitude
603.532 km
Perigee altitude
592.035 km
Semi-major axis
6,975.921 km
Eccentricity
0.00082
Inclination
97.8112°
RAAN
261.5975°
Arg. of periapsis
163.8043°
True anomaly
196.31736°
Mean anomaly
196.3439°
Eccentric anomaly
196.33063°
Mean motion
3.72513 °/min
Orbital period
96.64 mins
BSTAR
0.00027051
Loading maneuver chart data...
Computing Atmospheric mass density...
Loading historical data...
Loading historical data...
Loading historical data...
Loading historical data...
Loading historical data...
Loading historical data...
Loading historical data...

Documentation

Showing up to 5 results
|